Location: Obersdorf
(47.4079°N, 10.2781°E)
Time: 08:10:44
(UTC+02:00)

Envisat - Pass Details

Date: 04 October 2021
Orbit: 764 x 766 km, 98.2° (Epoch: 23 October)

Event Time Altitude Azimuth Distance (km) Brightness Sun altitude
Rises 05:21:59 0° 26° (NNE) 3,242 6.9 -20.9°
Reaches altitude 10° 05:24:54 10° 43° (NE) 2,310 6.3 -20.4°
Maximum altitude 05:28:38 20° 91° (E) 1,702 5.7 -19.8°
Drops below altitude 10° 05:32:20 10° 138° (SE) 2,297 5.8 -19.2°
Sets 05:35:12 0° 155° (SSE) 3,217 6.4 -18.8°
